Location: Fort Collins
(40.5850°N, 105.0840°W)
Time: 17:40:10
(UTC-06:00)

Cosmos 2297 Rocket - Visible Passes

Search period start: 29 July 2016 00:00
Search period end: 08 August 2016 00:00
Orbit: 841 x 842 km, 71.0° (Epoch: 29 July)

Date Brightness Start Highest point End Pass type
(mag) Time Alt. Az. Time Alt. Az. Time Alt. Az.
29 Jul 2.8 02:23:41 10° NNW 02:29:13 52° ENE 02:31:06 37° ESE visible
29 Jul 3.4 04:08:41 10° NW 04:12:48 21° W 04:12:50 21° W visible
30 Jul 2.9 02:08:37 10° NNW 02:14:07 50° ENE 02:15:22 42° E visible
30 Jul 3.5 03:53:29 10° NW 03:57:06 22° W 03:57:06 22° W visible
31 Jul 2.9 01:53:33 10° NNW 01:59:00 47° ENE 01:59:47 44° E visible
31 Jul 3.5 03:38:18 10° NW 03:41:32 22° W 03:41:32 22° W visible
01 Aug 2.9 01:38:29 10° NNW 01:43:54 45° ENE 01:44:19 44° ENE visible
01 Aug 3.6 03:23:07 10° NW 03:26:04 22° WNW 03:26:04 22° WNW visible
02 Aug 3.0 01:23:26 10° N 01:28:49 43° ENE 01:28:56 43° ENE visible
02 Aug 3.7 03:07:58 10° NW 03:10:42 22° WNW 03:10:42 22° WNW visible
03 Aug 3.1 01:08:23 10° N 01:13:38 40° ENE 01:13:38 40° ENE visible
03 Aug 3.8 02:52:48 10° NW 02:55:24 22° WNW 02:55:24 22° WNW visible
04 Aug 3.2 00:53:20 10° N 00:58:23 38° NE 00:58:23 38° NE visible
04 Aug 3.8 02:37:40 10° NW 02:40:10 22° WNW 02:40:10 22° WNW visible
05 Aug 3.3 00:38:17 10° N 00:43:12 36° NE 00:43:12 36° NE visible
05 Aug 3.8 02:22:30 10° NW 02:24:59 22° WNW 02:24:59 22° WNW visible
06 Aug 3.4 00:23:14 10° N 00:28:04 35° NE 00:28:04 35° NE visible
06 Aug 3.9 02:07:21 10° NW 02:09:51 23° WNW 02:09:51 23° WNW visible
07 Aug 3.4 00:08:11 10° N 00:12:58 33° NE 00:12:58 33° NE visible
07 Aug 3.9 01:52:13 10° NW 01:54:45 24° WNW 01:54:45 24° WNW visible
